Location: Home
(42.5358°N, 72.7383°W)
Time: 03:53:40
(UTC-04:00)

Vanguard 1 - Pass Details

Date: 01 June 2022
Orbit: 649 x 3832 km, 34.2° (Epoch: 24 June)

Event Time Altitude Azimuth Distance (km) Brightness Sun altitude
Exits shadow 22:43:56 25° 135° (SE) 3,114 12.0 -19.2°
Drops below altitude 10° 22:54:09 10° 89° (E) 5,271 13.5 -20.1°
Sets 23:00:21 0° 79° (E) 6,864 14.2 -20.6°
